Showing default

FLOCK 4G 14, 62667

Orbit data source: Space-Track

FLOCK 4G 14, 62667 is a payload satellite owned by Planet (US) in SSO that was launched on Tue, 14 Jan 2025 UTC via an FALCON 9 launch vehicle from the Air Force Western Test Range (AFWTR). Payload-class satellites include a variety of spacecraft equipped with specific instruments for various scientific and technological missions. These include communications satellites like Starlink; space stations such as the ISS; scientific satellites like the Hubble; Earth observation satellites from companies like Planet Labs, Umbra, and HawkEye 360; GPS; miniature CubeSats for education and research; and military/defense satellites.

Loading next visibility...
Identifier
62667, 2025-009BL
Orbit
SSO
Country
Flag of USUS
Related business
Manufacturer
Planet
Mission
Operational Commercial Imaging
Bus & Motor
CUBESAT 3U, Unknown motor
Mass
5.7 kg wet, 5.7 kg dry
Launch date (UTC)
2025-01-14 (11 months ago)
Launch vehicle
FALCON 9
Launch site
Air Force Western Test Range (AFWTR)
Object type
Payload
Rocket body
Debris
Shape & HBR
Box + 2 Pan, 1.0 m
Radar Cross Section
0.072 m², Medium (>0.1 m² and < 1m²)

Expand to show TLE details & history
Last TLE update: 1 day ago

TLE from 1 day ago
0 FLOCK 4G 14
1 62667U 25009BL  25353.17957539  .00009213  00000-0  37176-3 0  9999
2 62667  97.4204  71.2427 0003913 223.5747 136.5182 15.25012272 51429
Epoch: 2025-12-19T04:18Z
TLE epoch observation values (Epoch: 2025-12-19T04:18:35.313Z)
Latitude
-0.00005°
Longitude
-81.42887°
Altitude
495.796 km
Speed
7.616 km/s
True Right ascension
04h 44m 58s
True Declination
0° 00' 00"
Sunlit
Object was in full shadow at epoch
Visualization orbit readout
Latitude
Unknown
Longitude
Unknown
Altitude
Unknown
Speed
Unknown
Apparent Right ascension
Unknown
Apparent Declination
Unknown
Sunlit
N/A
Visualization observer readout
Local Sidereal Time
04:13:00
Azimuth
Unknown
Elevation
Unknown
Doppler factor
Unknown
Orbital elements
Apogee altitude
490.395 km
Perigee altitude
485.022 km
Semi-major axis
6,865.845 km
Eccentricity
0.00039
Inclination
97.4204°
RAAN
71.2427°
Arg. of periapsis
223.5747°
True anomaly
136.54904°
Mean anomaly
136.5182°
Eccentric anomaly
136.53362°
Mean motion
3.81507 °/min
Orbital period
94.36 mins
BSTAR
0.00037176
Loading maneuver chart data...
Computing Atmospheric mass density...
Loading historical data...
Loading historical data...
Loading historical data...
Loading historical data...
Loading historical data...
Loading historical data...
Loading historical data...

Documentation

Showing up to 5 results
|